Погода в Косой Горе

Россия / Тульская область     54°07′13″N   37°32′59″E
темп.,
°C
ветер,
м/с
пор.,
м/с
влажн.,
%
обл.,
%
осадки,
мм/ч
давл.,
гПа
погр.,
м
15 апреля, чт
чт1500:00+11в3353100 0.0 101618
03:00+12всв335299 0.0 101534
06:00+10вюв3767100 0.0 1015132
09:00+13вюв3462100 0.0 1015224
12:00+17в3447100 0.0 1014807
15:00+18вюв4642100 0.0 10131394
18:00+15юв61158100 0.2 1013429
21:00+11зсз118599 0.4 101410
16 апреля, пт
пт1600:00+10вюв3990100 0.8 1015389
03:00+10в348873 0.9 101587
06:00+8в48915 0.0 1016166
09:00+12вюв577197 0.0 1017534
12:00+15в5762100 0.2 10171239
15:00+13всв6976100 2.8 1017735
18:00+13вюв4874100 3.7 1017228
21:00+11в488655 5.6 1018190
17 апреля, сб
сб1700:00+9в369197 0.2 101992
03:00+9всв5109633 0.5 1019258
06:00+8всв5119699 0.1 1020340
09:00+10всв71187100 0.3 1019520
12:00+13в81167100 0.3 10191180
15:00+15в71265100 1.1 10181424
18:00+13всв81367100 1.9 1018743
21:00+12всв8147498 3.9 1018847
18 апреля, вс
вс1800:00+9св71478100 0.0 1018577
03:00+7св8147499 0.0 1019575
06:00+6св71373100 0.0 1019645
09:00+6св71175100 0.0 1021552
12:00+9всв687580 0.0 1021860
15:00+8св787374 0.1 1022867
18:00+9в6117350 0.0 1023954
21:00+6всв34845 0.0 102468
19 апреля, пн
пн1900:00+4св23885 0.0 102435
03:00+4ссв38875 0.0 1025187
06:00+3св410845 0.0 1025265
09:00+7всв79745 0.0 1026652
12:00+10всв795843 0.0 10251513
15:00+10в6858100 0.0 10261669
18:00+9всв6858100 0.0 10261112
21:00+8всв5105799 0.0 1027472